Year,Month,Day,Hour,Minute,Value (Times are PST for windspeed in km/hr)
2015,11,09,00,00,4.00
2015,11,09,00,01,3.90
2015,11,09,00,02,4.30
2015,11,09,00,03,3.70
2015,11,09,00,04,4.00
2015,11,09,00,05,4.30
2015,11,09,00,06,4.20
2015,11,09,00,07,4.60
2015,11,09,00,08,4.00
2015,11,09,00,09,4.60
2015,11,09,00,10,4.80
2015,11,09,00,11,5.10
2015,11,09,00,12,5.80
2015,11,09,00,13,4.90
2015,11,09,00,14,4.80
2015,11,09,00,15,4.80
2015,11,09,00,16,4.20
2015,11,09,00,17,4.50
2015,11,09,00,18,4.00
2015,11,09,00,19,3.90
2015,11,09,00,20,4.30
2015,11,09,00,21,3.40
2015,11,09,00,22,3.90
2015,11,09,00,23,4.40
2015,11,09,00,24,4.90
2015,11,09,00,25,4.40
2015,11,09,00,26,3.50
2015,11,09,00,27,4.50
2015,11,09,00,28,4.00
2015,11,09,00,29,4.40
2015,11,09,00,30,4.00
2015,11,09,00,31,3.10
2015,11,09,00,32,3.50
2015,11,09,00,33,3.30
2015,11,09,00,34,3.10
2015,11,09,00,35,3.10
2015,11,09,00,36,2.80
2015,11,09,00,37,2.90
2015,11,09,00,38,2.40
2015,11,09,00,39,1.90
2015,11,09,00,40,2.90
2015,11,09,00,41,1.80
2015,11,09,00,42,2.90
2015,11,09,00,43,1.90
2015,11,09,00,44,2.50
2015,11,09,00,45,3.00
2015,11,09,00,46,2.30
2015,11,09,00,47,2.20
2015,11,09,00,48,2.00
2015,11,09,00,49,1.50
2015,11,09,00,50,0.60
2015,11,09,00,51,0.40
2015,11,09,00,52,0.50
2015,11,09,00,53,0.10
2015,11,09,00,54,0.20
2015,11,09,00,55,1.00
2015,11,09,00,56,1.30
2015,11,09,00,57,1.90
2015,11,09,00,58,1.90
2015,11,09,00,59,2.30
2015,11,09,01,00,2.70
2015,11,09,01,01,3.00
2015,11,09,01,02,2.60
2015,11,09,01,03,3.00
2015,11,09,01,04,3.50
2015,11,09,01,05,3.50
2015,11,09,01,06,4.20
2015,11,09,01,07,3.90
2015,11,09,01,08,5.20
2015,11,09,01,09,4.60
2015,11,09,01,10,4.50
2015,11,09,01,11,3.70
2015,11,09,01,12,3.50
2015,11,09,01,13,2.30
2015,11,09,01,14,0.50
2015,11,09,01,15,1.10
2015,11,09,01,16,1.00
2015,11,09,01,17,0.70
2015,11,09,01,18,0.30
2015,11,09,01,19,0.60
2015,11,09,01,20,1.70
2015,11,09,01,21,1.90
2015,11,09,01,22,2.30
2015,11,09,01,23,2.00
2015,11,09,01,24,0.50
2015,11,09,01,25,1.40
2015,11,09,01,26,1.30
2015,11,09,01,27,2.20
2015,11,09,01,28,2.90
2015,11,09,01,29,4.60
2015,11,09,01,30,5.40
2015,11,09,01,31,5.10
2015,11,09,01,32,5.50
2015,11,09,01,33,5.40
2015,11,09,01,34,4.50
2015,11,09,01,35,3.70
2015,11,09,01,36,3.20
2015,11,09,01,37,3.20
2015,11,09,01,38,2.20
2015,11,09,01,39,2.40
2015,11,09,01,40,1.30
2015,11,09,01,41,1.40
2015,11,09,01,42,0.70
2015,11,09,01,43,0.50
2015,11,09,01,44,0.80
2015,11,09,01,45,0.80
2015,11,09,01,46,1.10
2015,11,09,01,47,1.00
2015,11,09,01,48,0.90
2015,11,09,01,49,0.50
2015,11,09,01,50,0.10
2015,11,09,01,51,0.00
2015,11,09,01,52,0.00
2015,11,09,01,53,0.00
2015,11,09,01,54,0.10
2015,11,09,01,55,0.10
2015,11,09,01,56,0.00
2015,11,09,01,57,0.00
2015,11,09,01,58,0.00
2015,11,09,01,59,0.10
2015,11,09,02,00,0.10
2015,11,09,02,01,0.20
2015,11,09,02,02,0.10
2015,11,09,02,03,1.10
2015,11,09,02,04,1.50
2015,11,09,02,05,2.70
2015,11,09,02,06,2.80
2015,11,09,02,07,2.40
2015,11,09,02,08,1.80
2015,11,09,02,09,2.40
2015,11,09,02,10,2.00
2015,11,09,02,11,1.90
2015,11,09,02,12,1.80
2015,11,09,02,13,2.00
2015,11,09,02,14,1.30
2015,11,09,02,15,2.60
2015,11,09,02,16,1.90
2015,11,09,02,17,2.70
2015,11,09,02,18,2.10
2015,11,09,02,19,2.40
2015,11,09,02,20,2.70
2015,11,09,02,21,2.40
2015,11,09,02,22,3.80
2015,11,09,02,23,3.20
2015,11,09,02,24,2.70
2015,11,09,02,25,3.30
2015,11,09,02,26,3.30
2015,11,09,02,27,2.60
2015,11,09,02,28,2.70
2015,11,09,02,29,3.10
2015,11,09,02,30,3.30
2015,11,09,02,31,3.30
2015,11,09,02,32,3.90
2015,11,09,02,33,2.50
2015,11,09,02,34,2.90
2015,11,09,02,35,2.30
2015,11,09,02,36,1.90
2015,11,09,02,37,2.20
2015,11,09,02,38,2.40
2015,11,09,02,39,2.90
2015,11,09,02,40,3.10
2015,11,09,02,41,3.10
2015,11,09,02,42,3.40
2015,11,09,02,43,4.70
2015,11,09,02,44,4.90
2015,11,09,02,45,5.50
2015,11,09,02,46,3.80
2015,11,09,02,47,4.10
2015,11,09,02,48,5.20
2015,11,09,02,49,4.90
2015,11,09,02,50,5.30
2015,11,09,02,51,6.70
2015,11,09,02,52,6.40
2015,11,09,02,53,6.60
2015,11,09,02,54,5.80
2015,11,09,02,55,6.00
2015,11,09,02,56,5.60
2015,11,09,02,57,4.90
2015,11,09,02,58,4.80
2015,11,09,02,59,5.00
2015,11,09,03,00,5.10
2015,11,09,03,01,5.50
2015,11,09,03,02,6.30
2015,11,09,03,03,5.90
2015,11,09,03,05,5.30
2015,11,09,03,06,5.10
2015,11,09,03,07,4.50
2015,11,09,03,08,4.90
2015,11,09,03,09,5.10
2015,11,09,03,10,4.20
2015,11,09,03,11,5.80
2015,11,09,03,12,4.90
2015,11,09,03,13,3.10
2015,11,09,03,14,3.00
2015,11,09,03,15,3.60
2015,11,09,03,16,3.60
2015,11,09,03,17,2.40
2015,11,09,03,18,3.00
2015,11,09,03,19,2.50
2015,11,09,03,20,2.30
2015,11,09,03,21,1.80
2015,11,09,03,22,2.00
2015,11,09,03,23,1.60
2015,11,09,03,24,2.40
2015,11,09,03,25,3.30
2015,11,09,03,26,2.60
2015,11,09,03,27,2.40
2015,11,09,03,28,2.80
2015,11,09,03,29,2.90
2015,11,09,03,30,2.20
2015,11,09,03,31,3.20
2015,11,09,03,32,2.60
2015,11,09,03,33,2.30
2015,11,09,03,34,6.60
2015,11,09,03,35,4.80
2015,11,09,03,36,3.20
2015,11,09,03,37,3.30
2015,11,09,03,38,4.40
2015,11,09,03,39,4.90
2015,11,09,03,40,5.40
2015,11,09,03,41,5.80
2015,11,09,03,42,6.70
2015,11,09,03,43,7.10
2015,11,09,03,44,6.30
2015,11,09,03,45,7.90
2015,11,09,03,46,8.40
2015,11,09,03,47,10.30
2015,11,09,03,48,7.20
2015,11,09,03,49,6.80
2015,11,09,03,50,7.90
2015,11,09,03,51,8.40
2015,11,09,03,52,8.40
2015,11,09,03,53,7.20
2015,11,09,03,54,8.60
2015,11,09,03,55,6.70
2015,11,09,03,56,8.50
2015,11,09,03,57,6.90
2015,11,09,03,58,6.60
2015,11,09,03,59,8.10
2015,11,09,04,00,6.50
2015,11,09,04,01,6.80
2015,11,09,04,02,6.90
2015,11,09,04,03,9.20
2015,11,09,04,04,10.00
2015,11,09,04,05,7.40
2015,11,09,04,06,7.00
2015,11,09,04,07,8.90
2015,11,09,04,08,7.90
2015,11,09,04,09,5.50
2015,11,09,04,10,6.90
2015,11,09,04,11,6.60
2015,11,09,04,12,5.80
2015,11,09,04,13,8.20
2015,11,09,04,14,5.20
2015,11,09,04,15,6.80
2015,11,09,04,16,7.00
2015,11,09,04,17,6.10
2015,11,09,04,18,5.60
2015,11,09,04,19,6.00
2015,11,09,04,20,7.70
2015,11,09,04,21,7.60
2015,11,09,04,22,6.40
2015,11,09,04,23,6.20
2015,11,09,04,24,8.50
2015,11,09,04,25,7.40
2015,11,09,04,26,7.90
2015,11,09,04,27,6.40
2015,11,09,04,28,6.80
2015,11,09,04,29,9.80
2015,11,09,04,30,7.40
2015,11,09,04,31,5.10
2015,11,09,04,32,4.50
2015,11,09,04,33,4.90
2015,11,09,04,34,5.90
2015,11,09,04,35,4.20
2015,11,09,04,36,3.90
2015,11,09,04,37,5.50
2015,11,09,04,38,4.40
2015,11,09,04,39,4.90
2015,11,09,04,40,5.20
2015,11,09,04,41,4.00
2015,11,09,04,42,3.50
2015,11,09,04,43,2.40
2015,11,09,04,44,2.30
2015,11,09,04,45,2.30
2015,11,09,04,46,2.30
2015,11,09,04,47,3.00
2015,11,09,04,48,3.80
2015,11,09,04,49,3.10
2015,11,09,04,50,3.40
2015,11,09,04,51,3.80
2015,11,09,04,52,4.10
2015,11,09,04,53,4.80
2015,11,09,04,54,4.70
2015,11,09,04,55,4.20
2015,11,09,04,56,4.00
2015,11,09,04,57,4.00
2015,11,09,04,58,5.40
2015,11,09,04,59,7.20
2015,11,09,05,00,7.20
2015,11,09,05,01,8.60
2015,11,09,05,02,8.30
2015,11,09,05,03,12.60
2015,11,09,05,04,9.80
2015,11,09,05,05,10.10
2015,11,09,05,06,9.50
2015,11,09,05,07,10.90
2015,11,09,05,08,10.40
2015,11,09,05,09,9.80
2015,11,09,05,10,7.50
2015,11,09,05,11,9.70
2015,11,09,05,12,10.60
2015,11,09,05,13,10.80
2015,11,09,05,14,9.40
2015,11,09,05,15,7.20
2015,11,09,05,16,7.30
2015,11,09,05,17,8.10
2015,11,09,05,18,6.60
2015,11,09,05,19,9.00
2015,11,09,05,20,7.30
2015,11,09,05,21,7.80
2015,11,09,05,22,6.70
2015,11,09,05,23,8.00
2015,11,09,05,24,6.30
2015,11,09,05,25,6.80
2015,11,09,05,26,5.50
2015,11,09,05,27,2.00
2015,11,09,05,28,6.10
2015,11,09,05,29,3.30
2015,11,09,05,30,4.60
2015,11,09,05,31,3.40
2015,11,09,05,32,2.40
2015,11,09,05,33,3.60
2015,11,09,05,34,2.90
2015,11,09,05,35,2.40
2015,11,09,05,36,5.00
2015,11,09,05,37,5.00
2015,11,09,05,38,5.50
2015,11,09,05,39,6.20
2015,11,09,05,40,6.20
2015,11,09,05,41,6.00
2015,11,09,05,42,6.40
2015,11,09,05,43,7.90
2015,11,09,05,44,7.90
2015,11,09,05,45,5.30
2015,11,09,05,46,4.30
2015,11,09,05,47,5.00
2015,11,09,05,48,5.50
2015,11,09,05,49,4.30
2015,11,09,05,50,3.90
2015,11,09,05,51,4.50
2015,11,09,05,52,4.20
2015,11,09,05,53,4.30
2015,11,09,05,54,4.80
2015,11,09,05,55,6.20
2015,11,09,05,56,5.10
2015,11,09,05,57,6.50
2015,11,09,05,58,7.80
2015,11,09,05,59,6.10
2015,11,09,06,00,8.50
2015,11,09,06,01,5.90
2015,11,09,06,02,5.70
2015,11,09,06,03,5.50
2015,11,09,06,04,3.70
2015,11,09,06,05,4.60
2015,11,09,06,06,6.20
2015,11,09,06,07,10.00
2015,11,09,06,08,6.90
2015,11,09,06,09,7.90
2015,11,09,06,10,9.80
2015,11,09,06,11,5.30
2015,11,09,06,12,5.20
2015,11,09,06,13,6.90
2015,11,09,06,14,6.10
2015,11,09,06,15,6.10
2015,11,09,06,16,4.00
2015,11,09,06,17,5.50
2015,11,09,06,18,6.20
2015,11,09,06,19,5.10
2015,11,09,06,20,4.20
2015,11,09,06,21,5.80
2015,11,09,06,22,6.20
2015,11,09,06,23,3.70
2015,11,09,06,24,4.20
2015,11,09,06,25,2.40
2015,11,09,06,26,5.50
2015,11,09,06,27,5.50
2015,11,09,06,28,6.70
2015,11,09,06,29,6.00
2015,11,09,06,30,8.30
2015,11,09,06,31,4.90
2015,11,09,06,32,7.40
2015,11,09,06,33,7.30
2015,11,09,06,34,8.30
2015,11,09,06,35,7.90
2015,11,09,06,36,4.30
2015,11,09,06,37,6.40
2015,11,09,06,38,4.20
2015,11,09,06,39,3.00
2015,11,09,06,40,3.60
2015,11,09,06,41,3.90
2015,11,09,06,42,5.80
2015,11,09,06,43,6.70
2015,11,09,06,44,6.40
2015,11,09,06,45,6.30
2015,11,09,06,46,9.80
2015,11,09,06,47,7.40
2015,11,09,06,48,6.30
2015,11,09,06,49,6.60
2015,11,09,06,50,5.90
2015,11,09,06,51,5.80
2015,11,09,06,52,4.90
2015,11,09,06,53,7.50
2015,11,09,06,54,6.60
2015,11,09,06,55,7.00
2015,11,09,06,56,9.90
2015,11,09,06,57,6.60
2015,11,09,06,58,6.70
2015,11,09,06,59,5.90
2015,11,09,07,00,6.40
2015,11,09,07,01,7.30
2015,11,09,07,02,7.40
2015,11,09,07,03,7.70
2015,11,09,07,04,6.70
2015,11,09,07,05,5.70
2015,11,09,07,06,5.80
2015,11,09,07,07,6.40
2015,11,09,07,08,6.60
2015,11,09,07,09,4.80
2015,11,09,07,10,5.00
2015,11,09,07,11,2.30
2015,11,09,07,12,2.60
2015,11,09,07,13,2.50
2015,11,09,07,14,3.70
2015,11,09,07,15,3.00
2015,11,09,07,16,2.80
2015,11,09,07,17,1.60
2015,11,09,07,18,2.60
2015,11,09,07,19,4.30
2015,11,09,07,20,4.30
2015,11,09,07,21,6.10
2015,11,09,07,22,3.50
2015,11,09,07,23,3.60
2015,11,09,07,24,2.70
2015,11,09,07,25,6.10
2015,11,09,07,26,4.80
2015,11,09,07,27,5.10
2015,11,09,07,28,5.80
2015,11,09,07,29,4.60
2015,11,09,07,30,5.00
2015,11,09,07,31,7.30
2015,11,09,07,32,7.40
2015,11,09,07,33,7.00
2015,11,09,07,34,7.00
2015,11,09,07,35,4.20
2015,11,09,07,36,6.00
2015,11,09,07,37,5.60
2015,11,09,07,38,6.30
2015,11,09,07,39,8.50
2015,11,09,07,40,7.40
2015,11,09,07,41,7.30
2015,11,09,07,42,6.30
2015,11,09,07,43,9.50
2015,11,09,07,44,11.00
2015,11,09,07,45,10.60
2015,11,09,07,46,10.00
2015,11,09,07,47,13.10
2015,11,09,07,48,10.50
2015,11,09,07,49,7.20
2015,11,09,07,50,11.60
2015,11,09,07,51,6.90
2015,11,09,07,52,7.40
2015,11,09,07,53,7.30
2015,11,09,07,54,9.30
2015,11,09,07,55,6.50
2015,11,09,07,56,3.80
2015,11,09,07,57,4.30
2015,11,09,07,58,6.20
2015,11,09,07,59,4.20
2015,11,09,08,00,5.30
2015,11,09,08,01,3.90
2015,11,09,08,02,2.50
2015,11,09,08,03,1.80
2015,11,09,08,04,4.70
2015,11,09,08,05,3.80
2015,11,09,08,06,2.70
2015,11,09,08,07,6.30
2015,11,09,08,08,4.70
2015,11,09,08,09,3.20
2015,11,09,08,10,3.90
2015,11,09,08,11,6.00
2015,11,09,08,12,4.20
2015,11,09,08,13,4.30
2015,11,09,08,14,4.60
2015,11,09,08,15,2.10
2015,11,09,08,16,2.40
2015,11,09,08,17,4.60
2015,11,09,08,18,4.00
2015,11,09,08,19,7.10
2015,11,09,08,20,4.30
2015,11,09,08,21,5.10
2015,11,09,08,22,2.40
2015,11,09,08,23,6.10
2015,11,09,08,24,4.80
2015,11,09,08,25,3.20
2015,11,09,08,26,4.80
2015,11,09,08,27,2.60
2015,11,09,08,28,2.70
2015,11,09,08,29,5.40
2015,11,09,08,30,6.50
2015,11,09,08,31,8.40
2015,11,09,08,32,7.90
2015,11,09,08,33,9.70
2015,11,09,08,34,7.30
2015,11,09,08,35,11.50
2015,11,09,08,36,6.00
2015,11,09,08,37,6.10
2015,11,09,08,38,8.50
2015,11,09,08,39,7.50
2015,11,09,08,40,8.50
2015,11,09,08,41,12.30
2015,11,09,08,42,10.10
2015,11,09,08,43,8.40
2015,11,09,08,44,8.90
2015,11,09,08,45,7.60
2015,11,09,08,46,8.10
2015,11,09,08,47,5.60
2015,11,09,08,48,8.30
2015,11,09,08,49,7.00
2015,11,09,08,50,11.80
2015,11,09,08,51,8.70
2015,11,09,08,52,6.90
2015,11,09,08,53,11.70
2015,11,09,08,54,11.00
2015,11,09,08,55,9.10
2015,11,09,08,56,8.20
2015,11,09,08,57,7.90
2015,11,09,08,58,7.40
2015,11,09,08,59,10.60
2015,11,09,09,00,10.10
2015,11,09,09,01,6.10
2015,11,09,09,02,8.00
2015,11,09,09,03,9.60
2015,11,09,09,04,9.30
2015,11,09,09,05,7.20
2015,11,09,09,06,8.90
2015,11,09,09,07,10.90
2015,11,09,09,08,10.00
2015,11,09,09,09,6.90
2015,11,09,09,10,7.60
2015,11,09,09,11,10.70
2015,11,09,09,12,12.00
2015,11,09,09,13,8.70
2015,11,09,09,14,7.90
2015,11,09,09,15,5.40
2015,11,09,09,16,7.30
2015,11,09,09,17,5.10
2015,11,09,09,18,7.00
2015,11,09,09,19,8.30
2015,11,09,09,20,6.40
2015,11,09,09,21,4.20
2015,11,09,09,22,7.20
2015,11,09,09,23,6.20
2015,11,09,09,24,8.30
2015,11,09,09,25,5.80
2015,11,09,09,26,5.70
2015,11,09,09,27,8.50
2015,11,09,09,28,6.30
2015,11,09,09,29,3.80
2015,11,09,09,30,4.40
2015,11,09,09,31,4.50
2015,11,09,09,32,5.80
2015,11,09,09,33,5.80
2015,11,09,09,34,5.50
2015,11,09,09,35,5.40
2015,11,09,09,36,9.20
2015,11,09,09,37,7.00
2015,11,09,09,38,7.50
2015,11,09,09,39,9.40
2015,11,09,09,40,5.80
2015,11,09,09,41,6.90
2015,11,09,09,42,5.60
2015,11,09,09,43,6.00
2015,11,09,09,44,9.80
2015,11,09,09,45,9.40
2015,11,09,09,46,7.00
2015,11,09,09,47,11.40
2015,11,09,09,48,8.20
2015,11,09,09,49,12.00
2015,11,09,09,50,11.90
2015,11,09,09,51,11.30
2015,11,09,09,52,8.90
2015,11,09,09,53,9.00
2015,11,09,09,54,6.90
2015,11,09,09,55,8.50
2015,11,09,09,56,7.30
2015,11,09,09,57,9.70
2015,11,09,09,58,6.10
2015,11,09,09,59,7.90
2015,11,09,10,00,9.20
2015,11,09,10,01,4.30
2015,11,09,10,02,6.90
2015,11,09,10,03,5.90
2015,11,09,10,04,9.70
2015,11,09,10,05,8.40
2015,11,09,10,06,6.30
2015,11,09,10,07,7.00
2015,11,09,10,08,10.70
2015,11,09,10,09,12.90
2015,11,09,10,10,11.90
2015,11,09,10,11,8.40
2015,11,09,10,12,12.00
2015,11,09,10,13,10.90
2015,11,09,10,14,8.70
2015,11,09,10,15,12.00
2015,11,09,10,16,11.90
2015,11,09,10,17,11.00
2015,11,09,10,18,11.30
2015,11,09,10,19,12.30
2015,11,09,10,20,10.10
2015,11,09,10,21,6.20
2015,11,09,10,22,7.10
2015,11,09,10,23,8.30
2015,11,09,10,24,6.30
2015,11,09,10,25,6.00
2015,11,09,10,26,7.20
2015,11,09,10,27,3.50
2015,11,09,10,28,4.60
2015,11,09,10,29,8.90
2015,11,09,10,30,8.00
2015,11,09,10,31,5.40
2015,11,09,10,32,8.50
2015,11,09,10,33,11.40
2015,11,09,10,34,10.20
2015,11,09,10,35,7.20
2015,11,09,10,36,10.70
2015,11,09,10,37,12.70
2015,11,09,10,38,13.90
2015,11,09,10,39,12.20
2015,11,09,10,40,9.00
2015,11,09,10,41,10.90
2015,11,09,10,42,9.50
2015,11,09,10,43,9.40
2015,11,09,10,44,10.60
2015,11,09,10,45,8.70
2015,11,09,10,46,9.80
2015,11,09,10,47,8.80
2015,11,09,10,48,12.10
2015,11,09,10,49,9.50
2015,11,09,10,50,9.20
2015,11,09,10,51,11.70
2015,11,09,10,52,6.90
2015,11,09,10,53,9.70
2015,11,09,10,54,11.00
2015,11,09,10,55,9.60
2015,11,09,10,56,6.90
2015,11,09,10,57,7.30
2015,11,09,10,58,10.10
2015,11,09,10,59,9.60
2015,11,09,11,00,8.10
2015,11,09,11,01,7.40
2015,11,09,11,02,9.80
2015,11,09,11,03,7.80
2015,11,09,11,04,9.30
2015,11,09,11,05,4.90
2015,11,09,11,06,6.60
2015,11,09,11,07,11.60
2015,11,09,11,08,11.50
2015,11,09,11,09,8.70
2015,11,09,11,10,6.70
2015,11,09,11,11,11.10
2015,11,09,11,12,8.30
2015,11,09,11,13,12.60
2015,11,09,11,14,12.80
2015,11,09,11,15,7.70
2015,11,09,11,16,9.60
2015,11,09,11,17,10.50
2015,11,09,11,18,10.90
2015,11,09,11,19,11.30
2015,11,09,11,20,12.60
2015,11,09,11,21,9.80
2015,11,09,11,22,10.90
2015,11,09,11,23,12.90
2015,11,09,11,24,9.50
2015,11,09,11,25,12.30
2015,11,09,11,26,12.10
2015,11,09,11,27,9.70
2015,11,09,11,28,12.10
2015,11,09,11,29,11.50
2015,11,09,11,30,14.70
2015,11,09,11,31,8.20
2015,11,09,11,32,7.70
2015,11,09,11,33,11.10
2015,11,09,11,34,9.10
2015,11,09,11,35,14.80
2015,11,09,11,36,16.60
2015,11,09,11,37,9.50
2015,11,09,11,38,11.30
2015,11,09,11,39,12.10
2015,11,09,11,40,11.40
2015,11,09,11,41,13.30
2015,11,09,11,42,9.70
2015,11,09,11,43,11.50
2015,11,09,11,44,9.60
2015,11,09,11,45,9.20
2015,11,09,11,46,12.30
2015,11,09,11,47,10.00
2015,11,09,11,48,11.90
2015,11,09,11,49,8.50
2015,11,09,11,50,10.40
2015,11,09,11,51,8.60
2015,11,09,11,52,9.50
2015,11,09,11,53,14.20
2015,11,09,11,54,12.70
2015,11,09,11,55,10.40
2015,11,09,11,56,7.90
2015,11,09,11,57,12.60
2015,11,09,11,58,10.90
2015,11,09,11,59,13.20
2015,11,09,12,00,12.00
2015,11,09,12,01,9.80
2015,11,09,12,02,11.50
2015,11,09,12,03,14.50
2015,11,09,12,04,15.70
2015,11,09,12,05,15.70
2015,11,09,12,06,15.30
2015,11,09,12,07,15.60
2015,11,09,12,08,15.70
2015,11,09,12,09,13.40
2015,11,09,12,10,14.20
2015,11,09,12,11,14.20
2015,11,09,12,12,13.90
2015,11,09,12,13,12.70
2015,11,09,12,14,12.20
2015,11,09,12,15,11.60
2015,11,09,12,16,12.80
2015,11,09,12,17,13.10
2015,11,09,12,18,9.70
2015,11,09,12,19,13.50
2015,11,09,12,20,11.90
2015,11,09,12,21,9.00
2015,11,09,12,22,10.20
2015,11,09,12,23,10.90
2015,11,09,12,24,12.00
2015,11,09,12,25,10.30
2015,11,09,12,26,9.40
2015,11,09,12,27,12.10
2015,11,09,12,28,9.50
2015,11,09,12,29,9.50
2015,11,09,12,30,10.70
2015,11,09,12,31,10.90
2015,11,09,12,32,9.40
2015,11,09,12,33,10.10
2015,11,09,12,34,9.50
2015,11,09,12,35,7.70
2015,11,09,12,36,9.80
2015,11,09,12,37,9.10
2015,11,09,12,38,10.90
2015,11,09,12,39,8.90
2015,11,09,12,40,9.20
2015,11,09,12,41,7.90
2015,11,09,12,42,7.30
2015,11,09,12,43,11.90
2015,11,09,12,44,9.90
2015,11,09,12,45,7.50
2015,11,09,12,46,6.80
2015,11,09,12,47,9.50
2015,11,09,12,48,10.60
2015,11,09,12,49,10.60
2015,11,09,12,50,10.10
2015,11,09,12,51,9.10
2015,11,09,12,52,11.50
2015,11,09,12,53,7.10
2015,11,09,12,54,8.20
2015,11,09,12,55,6.20
2015,11,09,12,56,6.90
2015,11,09,12,57,9.80
2015,11,09,12,58,7.30
2015,11,09,12,59,7.40
2015,11,09,13,00,7.70
2015,11,09,13,01,6.80
2015,11,09,13,02,6.60
2015,11,09,13,03,5.10
2015,11,09,13,04,12.00
2015,11,09,13,05,9.50
2015,11,09,13,06,8.20
2015,11,09,13,07,8.60
2015,11,09,13,08,6.90
2015,11,09,13,09,7.00
2015,11,09,13,10,7.20
2015,11,09,13,11,7.10
2015,11,09,13,12,7.30
2015,11,09,13,13,9.10
2015,11,09,13,14,8.60
2015,11,09,13,15,7.00
2015,11,09,13,16,9.40
2015,11,09,13,17,10.60
2015,11,09,13,18,8.50
2015,11,09,13,19,8.70
2015,11,09,13,20,6.30
2015,11,09,13,21,9.80
2015,11,09,13,22,6.90
2015,11,09,13,23,11.60
2015,11,09,13,24,10.70
2015,11,09,13,25,9.20
2015,11,09,13,26,6.30
2015,11,09,13,27,5.30
2015,11,09,13,28,4.30
2015,11,09,13,29,3.20
2015,11,09,13,30,2.80
2015,11,09,13,31,4.30
2015,11,09,13,32,1.80
2015,11,09,13,33,4.00
2015,11,09,13,34,3.20
2015,11,09,13,35,7.50
2015,11,09,13,36,7.60
2015,11,09,13,37,4.90
2015,11,09,13,38,5.80
2015,11,09,13,39,1.70
2015,11,09,13,40,2.90
2015,11,09,13,41,1.40
2015,11,09,13,42,3.00
2015,11,09,13,43,5.60
2015,11,09,13,44,5.70
2015,11,09,13,45,6.30
2015,11,09,13,46,7.80
2015,11,09,13,47,5.90
2015,11,09,13,48,3.30
2015,11,09,13,49,3.00
2015,11,09,13,50,3.90
2015,11,09,13,51,5.90
2015,11,09,13,52,5.70
2015,11,09,13,53,5.80
2015,11,09,13,54,7.70
2015,11,09,13,55,4.80
2015,11,09,13,56,4.20
2015,11,09,13,57,2.60
2015,11,09,13,58,2.90
2015,11,09,13,59,5.60
2015,11,09,14,00,3.80
2015,11,09,14,01,3.50
2015,11,09,14,02,4.40
2015,11,09,14,03,1.70
2015,11,09,14,04,3.40
2015,11,09,14,05,5.00
2015,11,09,14,06,4.90
2015,11,09,14,07,3.60
2015,11,09,14,08,2.70
2015,11,09,14,09,4.40
2015,11,09,14,10,8.00
2015,11,09,14,11,6.40
2015,11,09,14,12,3.70
2015,11,09,14,13,3.00
2015,11,09,14,14,6.10
2015,11,09,14,15,6.40
2015,11,09,14,16,5.50
2015,11,09,14,17,4.00
2015,11,09,14,18,6.70
2015,11,09,14,19,7.50
2015,11,09,14,20,7.50
2015,11,09,14,21,4.30
2015,11,09,14,22,6.50
2015,11,09,14,23,9.80
2015,11,09,14,24,7.90
2015,11,09,14,25,6.90
2015,11,09,14,26,7.10
2015,11,09,14,27,10.70
2015,11,09,14,28,8.10
2015,11,09,14,29,9.70
2015,11,09,14,30,9.50
2015,11,09,14,31,6.30
2015,11,09,14,32,11.50
2015,11,09,14,33,8.20
2015,11,09,14,34,8.10
2015,11,09,14,35,11.60
2015,11,09,14,36,12.50
2015,11,09,14,37,11.50
2015,11,09,14,38,8.30
2015,11,09,14,39,10.80
2015,11,09,14,40,6.60
2015,11,09,14,41,8.50
2015,11,09,14,42,8.90
2015,11,09,14,43,9.70
2015,11,09,14,44,8.10
2015,11,09,14,45,6.10
2015,11,09,14,46,4.60
2015,11,09,14,47,6.00
2015,11,09,14,48,7.50
2015,11,09,14,49,9.90
2015,11,09,14,50,6.50
2015,11,09,14,51,8.80
2015,11,09,14,52,12.00
2015,11,09,14,53,8.40
2015,11,09,14,54,8.80
2015,11,09,14,55,6.80
2015,11,09,14,56,4.50
2015,11,09,14,57,7.40
2015,11,09,14,58,9.40
2015,11,09,14,59,8.80
2015,11,09,15,00,11.90
2015,11,09,15,01,10.90
2015,11,09,15,02,8.80
2015,11,09,15,03,10.90
2015,11,09,15,04,7.20
2015,11,09,15,05,10.00
2015,11,09,15,06,8.30
2015,11,09,15,07,8.70
2015,11,09,15,08,8.40
2015,11,09,15,09,7.80
2015,11,09,15,10,8.00
2015,11,09,15,11,6.50
2015,11,09,15,12,5.40
2015,11,09,15,13,7.20
2015,11,09,15,14,7.00
2015,11,09,15,15,6.70
2015,11,09,15,16,7.30
2015,11,09,15,17,6.80
2015,11,09,15,18,6.90
2015,11,09,15,19,6.10
2015,11,09,15,20,6.90
2015,11,09,15,21,6.00
2015,11,09,15,22,8.60
2015,11,09,15,23,7.50
2015,11,09,15,24,7.00
2015,11,09,15,25,7.10
2015,11,09,15,26,6.90
2015,11,09,15,27,5.40
2015,11,09,15,28,6.30
2015,11,09,15,29,5.80
2015,11,09,15,30,5.00
2015,11,09,15,31,7.20
2015,11,09,15,32,7.20
2015,11,09,15,33,6.90
2015,11,09,15,34,5.80
2015,11,09,15,35,8.00
2015,11,09,15,36,7.70
2015,11,09,15,37,5.20
2015,11,09,15,38,5.80
2015,11,09,15,39,4.30
2015,11,09,15,40,3.70
2015,11,09,15,41,4.10
2015,11,09,15,42,3.30
2015,11,09,15,43,4.30
2015,11,09,15,44,3.50
2015,11,09,15,45,2.40
2015,11,09,15,46,3.20
2015,11,09,15,47,4.30
2015,11,09,15,48,2.70
2015,11,09,15,49,1.90
2015,11,09,15,50,2.30
2015,11,09,15,51,1.00
2015,11,09,15,52,1.80
2015,11,09,15,53,2.30
2015,11,09,15,54,2.20
2015,11,09,15,55,2.30
2015,11,09,15,56,3.30
2015,11,09,15,57,2.40
2015,11,09,15,58,3.40
2015,11,09,15,59,4.40
2015,11,09,16,00,3.90
2015,11,09,16,01,3.00
2015,11,09,16,02,2.90
2015,11,09,16,03,2.90
2015,11,09,16,04,3.10
2015,11,09,16,05,3.20
2015,11,09,16,06,2.30
2015,11,09,16,07,3.20
2015,11,09,16,08,5.50
2015,11,09,16,09,4.30
2015,11,09,16,10,2.90
2015,11,09,16,11,3.60
2015,11,09,16,12,3.70
2015,11,09,16,13,3.00
2015,11,09,16,14,3.50
2015,11,09,16,15,4.10
2015,11,09,16,16,3.80
2015,11,09,16,17,3.30
2015,11,09,16,18,3.30
2015,11,09,16,19,3.40
2015,11,09,16,20,3.60
2015,11,09,16,21,3.60
2015,11,09,16,22,2.70
2015,11,09,16,23,2.70
2015,11,09,16,24,3.70
2015,11,09,16,25,4.80
2015,11,09,16,26,3.10
2015,11,09,16,27,3.90
2015,11,09,16,28,3.10
2015,11,09,16,29,2.90
2015,11,09,16,30,3.10
2015,11,09,16,31,4.00
2015,11,09,16,32,3.80
2015,11,09,16,33,3.30
2015,11,09,16,34,3.30
2015,11,09,16,35,2.40
2015,11,09,16,36,2.30
2015,11,09,16,37,2.50
2015,11,09,16,38,1.40
2015,11,09,16,39,1.40
2015,11,09,16,40,1.10
2015,11,09,16,41,1.30
2015,11,09,16,42,2.60
2015,11,09,16,43,1.70
2015,11,09,16,44,1.60
2015,11,09,16,45,1.50
2015,11,09,16,46,1.00
2015,11,09,16,47,1.70
2015,11,09,16,48,1.10
2015,11,09,16,49,1.40
2015,11,09,16,50,1.60
2015,11,09,16,51,0.70
2015,11,09,16,52,0.70
2015,11,09,16,53,0.70
2015,11,09,16,54,1.40
2015,11,09,16,55,2.20
2015,11,09,16,56,2.00
2015,11,09,16,57,1.80
2015,11,09,16,58,3.10
2015,11,09,16,59,3.90
2015,11,09,17,00,3.70
2015,11,09,17,01,4.00
2015,11,09,17,02,4.00
2015,11,09,17,03,2.90
2015,11,09,17,04,2.60
2015,11,09,17,05,3.10
2015,11,09,17,06,2.70
2015,11,09,17,07,3.10
2015,11,09,17,08,3.60
2015,11,09,17,09,2.80
2015,11,09,17,10,3.20
2015,11,09,17,11,3.30
2015,11,09,17,12,2.90
2015,11,09,17,13,2.60
2015,11,09,17,14,3.20
2015,11,09,17,15,2.90
2015,11,09,17,16,2.60
2015,11,09,17,17,3.10
2015,11,09,17,18,3.30
2015,11,09,17,19,3.60
2015,11,09,17,20,3.00
2015,11,09,17,21,2.80
2015,11,09,17,22,1.90
2015,11,09,17,23,2.60
2015,11,09,17,24,2.70
2015,11,09,17,25,3.20
2015,11,09,17,26,3.00
2015,11,09,17,27,3.10
2015,11,09,17,28,2.30
2015,11,09,17,29,2.30
2015,11,09,17,30,2.70
2015,11,09,17,31,2.10
2015,11,09,17,32,2.30
2015,11,09,17,33,3.00
2015,11,09,17,34,3.20
2015,11,09,17,35,2.80
2015,11,09,17,36,2.60
2015,11,09,17,37,3.00
2015,11,09,17,38,3.30
2015,11,09,17,39,3.60
2015,11,09,17,40,3.60
2015,11,09,17,41,3.70
2015,11,09,17,42,4.60
2015,11,09,17,43,4.50
2015,11,09,17,44,4.90
2015,11,09,17,45,4.60
2015,11,09,17,46,5.40
2015,11,09,17,47,5.20
2015,11,09,17,48,5.70
2015,11,09,17,49,5.20
2015,11,09,17,50,5.70
2015,11,09,17,51,4.80
2015,11,09,17,52,5.60
2015,11,09,17,53,5.40
2015,11,09,17,54,6.80
2015,11,09,17,55,7.60
2015,11,09,17,56,6.80
2015,11,09,17,57,7.80
2015,11,09,17,58,6.70
2015,11,09,17,59,7.90
2015,11,09,18,00,6.90
2015,11,09,18,01,6.60